Location: Newark
(37.4167°N, 6.2889°W)
Time: 14:34:00
(UTC+00:00)

N. Korean satellite - Visible Passes

Search period start: 21 March 2019 00:00
Search period end: 31 March 2019 00:00
Orbit: 456 x 510 km, 97.2° (Epoch: 20 March)

Date Brightness Start Highest point End Pass type
(mag) Time Alt. Az. Time Alt. Az. Time Alt. Az.
23 Mar 9.6 05:52:14 10° NE 05:55:03 22° E 05:57:55 10° SSE visible
24 Mar 10.4 05:29:19 10° E 05:30:05 11° E 05:30:52 10° ESE visible
27 Mar 9.7 05:46:32 10° NE 05:49:09 19° E 05:51:48 10° SE visible
